.
WxDataArchive / Data Records for 2015-08-31
2015-08-30 August 2015 2015-09-01

Data Records for Monday, 31 August 2015

Time	Temp	Chill	HIndex	Humid	Dewpt	 Wind 	HiWind	WindDir	Rain 	Barom
-----	----	-----	------	-----	-----	------	------	-------	-----	-----
00:00	70.9	70.9	70.9	90	67.8	0	0	---	0.00	29.994 
00:05	70.8	70.8	70.8	90	67.7	0	0	---	0.00	29.994 
00:10	70.6	70.6	70.6	91	67.8	0	0	---	0.00	29.994 
00:15	70.6	70.6	70.6	91	67.8	0	0	---	0.00	29.991 
00:20	70.4	70.4	70.4	91	67.6	0	0	---	0.00	29.991 
00:25	70.3	70.3	70.3	91	67.5	0	0	---	0.00	29.991 
00:30	70.3	70.3	70.3	91	67.5	0	0	---	0.00	29.996 
00:35	70.1	70.1	70.1	91	67.3	0	0	---	0.00	29.996 
00:40	70.1	70.1	70.1	91	67.3	0	0	---	0.00	29.996 
00:45	69.9	69.9	69.9	91	67.1	0	0	---	0.00	29.999 
00:50	69.8	69.8	69.8	92	67.4	0	0	---	0.00	29.999 
00:55	69.6	69.6	69.6	92	67.2	0	0	---	0.00	29.999 
01:00	69.6	69.6	69.6	92	67.2	0	0	---	0.00	29.998 
01:05	69.6	69.6	69.6	92	67.2	0	0	---	0.00	29.998 
01:10	69.4	69.4	69.4	92	67.0	0	0	---	0.00	29.998 
01:15	69.4	69.4	69.4	92	67.0	0	0	---	0.00	29.992 
01:20	69.3	69.3	69.3	92	66.9	0	0	---	0.00	29.992 
01:25	69.3	69.3	69.3	92	66.9	0	0	---	0.00	29.992 
01:30	69.3	69.3	69.3	92	66.9	0	0	---	0.00	29.991 
01:35	69.1	69.1	69.1	92	66.7	0	0	---	0.00	29.991 
01:40	68.9	68.9	68.9	93	66.8	0	0	---	0.00	29.991 
01:45	68.8	68.8	68.8	93	66.7	0	0	---	0.00	29.992 
01:50	68.8	68.8	68.8	93	66.7	0	0	---	0.00	29.992 
01:55	68.6	68.6	68.6	93	66.5	0	0	---	0.00	29.992 
02:00	68.6	68.6	68.6	93	66.5	0	0	---	0.00	29.995 
02:05	68.4	68.4	68.4	93	66.3	0	0	---	0.00	29.995 
02:10	68.4	68.4	68.4	93	66.3	0	0	---	0.00	29.995 
02:15	68.3	68.3	68.3	93	66.2	0	0	---	0.00	29.992 
02:20	68.3	68.3	68.3	93	66.2	0	0	---	0.00	29.992 
02:25	68.3	68.3	68.3	93	66.2	0	0	---	0.00	29.992 
02:30	68.1	68.1	68.1	94	66.3	0	0	---	0.00	29.992 
02:35	68.1	68.1	68.1	94	66.3	0	0	---	0.00	29.992 
02:40	67.9	67.9	67.9	94	66.1	0	0	---	0.00	29.992 
02:45	67.9	67.9	67.9	94	66.1	0	0	---	0.00	29.987 
02:50	67.8	67.8	67.8	94	66.0	0	0	---	0.00	29.987 
02:55	67.8	67.8	67.8	94	66.0	0	0	---	0.00	29.987 
03:00	67.8	67.8	67.8	94	66.0	0	0	---	0.00	29.991 
03:05	67.6	67.6	67.6	94	65.8	0	0	---	0.00	29.991 
03:10	67.6	67.6	67.6	94	65.8	0	0	---	0.00	29.991 
03:15	67.6	67.6	67.6	94	65.8	0	0	---	0.00	29.991 
03:20	67.6	67.6	67.6	94	65.8	0	0	---	0.00	29.991 
03:25	67.6	67.6	67.6	94	65.8	0	0	---	0.00	29.991 
03:30	67.4	67.4	67.4	94	65.6	0	0	---	0.00	29.993 
03:35	67.4	67.4	67.4	95	65.9	0	0	---	0.00	29.993 
03:40	67.4	67.4	67.4	95	65.9	0	0	---	0.00	29.993 
03:45	67.4	67.4	67.4	95	65.9	0	0	---	0.00	29.993 
03:50	67.4	67.4	67.4	95	65.9	0	0	---	0.00	29.993 
03:55	67.4	67.4	67.4	95	65.9	0	0	---	0.00	29.993 
04:00	67.4	67.4	67.4	95	65.9	0	0	---	0.00	29.991 
04:05	67.3	67.3	67.3	95	65.8	0	0	---	0.00	29.991 
04:10	67.3	67.3	67.3	95	65.8	0	0	---	0.00	29.991 
04:15	67.3	67.3	67.3	95	65.8	0	0	---	0.00	29.993 
04:20	67.1	67.1	67.1	95	65.6	0	0	---	0.00	29.993 
04:25	67.1	67.1	67.1	95	65.6	0	0	---	0.00	29.993 
04:30	66.9	66.9	66.9	95	65.4	0	0	---	0.00	29.994 
04:35	66.9	66.9	66.9	95	65.4	0	0	---	0.00	29.994 
04:40	66.9	66.9	66.9	95	65.4	0	0	---	0.00	29.994 
04:45	66.8	66.8	66.8	95	65.3	0	0	---	0.00	29.993 
04:50	66.8	66.8	66.8	95	65.3	0	0	---	0.00	29.993 
04:55	66.6	66.6	66.6	95	65.1	0	0	---	0.00	29.993 
05:00	66.4	66.4	66.4	95	64.9	0	0	---	0.00	29.993 
05:05	66.4	66.4	66.4	95	64.9	0	0	---	0.00	29.993 
05:10	66.3	66.3	66.3	95	64.8	0	0	---	0.00	29.993 
05:15	66.3	66.3	66.3	95	64.8	0	0	---	0.00	29.996 
05:20	66.1	66.1	66.1	95	64.6	0	0	---	0.00	29.996 
05:25	66.1	66.1	66.1	95	64.6	0	0	---	0.00	29.996 
05:30	66.0	66.0	66.0	95	64.5	0	0	---	0.00	29.994 
05:35	66.0	66.0	66.0	95	64.5	0	0	---	0.00	29.994 
05:40	66.0	66.0	66.0	95	64.5	0	0	---	0.00	29.994 
05:45	65.8	65.8	65.8	95	64.3	0	0	---	0.00	29.994 
05:50	65.8	65.8	65.8	95	64.3	0	0	---	0.00	29.994 
05:55	65.6	65.6	65.6	95	64.1	0	0	---	0.00	29.994 
06:00	65.6	65.6	65.6	95	64.1	0	0	---	0.00	29.997 
06:05	65.6	65.6	65.6	95	64.1	0	0	---	0.00	29.997 
06:10	65.5	65.5	65.5	95	64.0	0	0	---	0.00	29.997 
06:15	65.5	65.5	65.5	95	64.0	0	0	---	0.00	30.003 
06:20	65.5	65.5	65.5	95	64.0	0	0	---	0.00	30.003 
06:25	65.5	65.5	65.5	95	64.0	0	0	---	0.00	30.003 
06:30	65.5	65.5	65.5	95	64.0	0	0	---	0.00	30.009 
06:35	65.3	65.3	65.3	95	63.8	0	0	---	0.00	30.009 
06:40	65.3	65.3	65.3	95	63.8	0	0	---	0.00	30.009 
06:45	65.2	65.2	65.2	95	63.7	0	0	---	0.00	30.010 
06:50	65.2	65.2	65.2	95	63.7	0	0	---	0.00	30.010 
06:55	65.2	65.2	65.2	95	63.7	0	0	---	0.00	30.010 
07:00	65.2	65.2	65.2	96	64.0	0	0	---	0.00	30.012 
07:05	65.2	65.2	65.2	95	63.7	0	0	---	0.00	30.012 
07:10	65.0	65.0	65.0	96	63.8	0	0	---	0.00	30.012 
07:15	65.0	65.0	65.0	96	63.8	0	0	---	0.00	30.017 
07:20	65.0	65.0	65.0	96	63.8	0	0	---	0.00	30.017 
07:25	65.0	65.0	65.0	96	63.8	0	0	---	0.00	30.017 
07:30	65.0	65.0	65.0	96	63.8	0	0	---	0.00	30.020 
07:35	65.0	65.0	65.0	96	63.8	0	0	---	0.00	30.020 
07:40	65.0	65.0	65.0	96	63.8	0	0	---	0.00	30.020 
07:45	65.2	65.2	65.2	96	64.0	0	0	---	0.00	30.024 
07:50	65.3	65.3	65.3	96	64.1	0	0	---	0.00	30.024 
07:55	65.6	65.6	65.6	96	64.4	0	0	---	0.00	30.024 
08:00	65.8	65.8	65.8	96	64.6	0	0	---	0.00	30.029 
08:05	66.0	66.0	66.0	96	64.8	0	0	---	0.00	30.029 
08:10	66.1	66.1	66.1	96	64.9	0	0	---	0.00	30.029 
08:15	66.3	66.3	66.3	96	65.1	0	0	---	0.00	30.038 
08:20	66.4	66.4	66.4	96	65.2	0	0	---	0.00	30.038 
08:25	66.8	66.8	66.8	96	65.6	0	0	---	0.00	30.038 
08:30	67.1	67.1	67.1	96	65.9	0	0	---	0.00	30.038 
08:35	67.4	67.4	67.4	96	66.2	0	0	---	0.00	30.038 
08:40	67.8	67.8	67.8	96	66.6	0	0	---	0.00	30.038 
08:45	68.1	68.1	68.1	96	66.9	0	0	---	0.00	30.038 
08:50	68.4	68.4	68.4	96	67.2	0	0	---	0.00	30.038 
08:55	68.6	68.6	68.6	96	67.4	0	0	---	0.00	30.038 
09:00	68.9	68.9	68.9	96	67.7	0	0	---	0.00	30.040 
09:05	69.1	69.1	69.1	96	67.9	0	1	270	0.00	30.040 
09:10	69.3	69.3	69.3	96	68.1	0	1	270	0.00	30.040 
09:15	69.4	69.4	69.4	96	68.2	0	0	---	0.00	30.044 
09:20	69.6	69.6	69.6	96	68.4	0	0	---	0.00	30.044 
09:25	69.9	69.9	69.9	95	68.4	0	1	135	0.00	30.044 
09:30	70.1	70.1	70.1	95	68.6	0	1	135	0.00	30.044 
09:35	70.4	70.4	70.4	95	68.9	0	1	135	0.00	30.044 
09:40	70.8	70.8	70.8	95	69.3	0	0	---	0.00	30.044 
09:45	71.1	71.1	71.1	94	69.3	0	0	---	0.00	30.044 
09:50	71.5	71.5	71.5	94	69.7	0	1	135	0.00	30.044 
09:55	71.8	71.8	71.8	93	69.7	0	1	135	0.00	30.044 
10:00	72.1	72.1	72.1	92	69.6	0	1	135	0.00	30.043 
10:05	72.7	72.7	72.7	91	69.9	0	1	135	0.00	30.043 
10:10	73.0	73.0	73.0	90	69.9	0	2	135	0.00	30.043 
10:15	73.3	73.3	73.3	88	69.5	0	2	135	0.00	30.045 
10:20	73.7	73.7	73.7	86	69.2	0	3	135	0.00	30.045 
10:25	74.0	74.0	74.0	84	68.8	1	3	248	0.00	30.045 
10:30	74.4	74.4	74.4	82	68.5	0	2	248	0.00	30.048 
10:35	74.9	74.9	74.9	81	68.7	0	3	248	0.00	30.048 
10:40	75.3	75.3	75.9	81	69.1	0	2	248	0.00	30.048 
10:45	75.8	75.8	76.7	80	69.2	0	3	248	0.00	30.054 
10:50	76.1	76.1	77.2	79	69.1	0	1	248	0.00	30.054 
10:55	76.7	76.7	78.1	79	69.7	0	1	248	0.00	30.054 
11:00	77.2	77.2	79.0	77	69.4	0	2	248	0.00	30.056 
11:05	77.6	77.6	79.6	76	69.4	0	2	248	0.00	30.056 
11:10	77.7	77.7	79.7	77	69.9	0	2	248	0.00	30.056 
11:15	78.1	78.1	80.3	75	69.5	0	2	248	0.00	30.056 
11:20	78.5	78.5	81.0	75	69.9	0	0	---	0.00	30.056 
11:25	78.8	78.8	81.3	73	69.4	0	1	248	0.00	30.056 
11:30	79.2	79.2	82.0	73	69.8	0	1	248	0.00	30.055 
11:35	79.4	79.4	82.3	73	70.0	1	3	248	0.00	30.055 
11:40	79.4	79.4	82.3	73	70.0	0	1	248	0.00	30.055 
11:45	79.8	79.8	83.1	74	70.8	0	0	---	0.00	30.054 
11:50	80.1	80.1	83.4	72	70.2	0	0	---	0.00	30.054 
11:55	80.5	80.5	83.9	71	70.2	0	3	270	0.00	30.054 
12:00	80.7	80.7	84.1	70	70.0	1	3	270	0.00	30.051 
12:05	80.7	80.7	84.0	69	69.6	1	3	315	0.00	30.051 
12:10	81.1	81.1	84.8	70	70.4	1	3	315	0.00	30.051 
12:15	81.2	81.2	84.8	69	70.0	0	3	315	0.00	30.054 
12:20	81.4	81.4	85.3	70	70.7	0	2	315	0.00	30.054 
12:25	81.4	81.4	84.8	67	69.4	1	3	315	0.00	30.054 
12:30	81.8	81.8	85.5	67	69.7	0	2	315	0.00	30.048 
12:35	81.6	81.6	84.9	66	69.1	1	3	315	0.00	30.048 
12:40	81.6	81.6	85.3	68	70.0	0	2	315	0.00	30.048 
12:45	82.0	82.0	85.4	65	69.0	1	3	315	0.00	30.043 
12:50	81.8	81.8	84.9	64	68.4	1	4	315	0.00	30.043 
12:55	81.4	81.4	84.4	65	68.5	0	2	315	0.00	30.043 
13:00	81.4	81.4	84.6	66	68.9	0	1	315	0.00	30.041 
13:05	81.8	81.8	84.9	64	68.4	1	4	315	0.00	30.041 
13:10	81.6	81.6	84.7	65	68.7	0	2	315	0.00	30.041 
13:15	81.6	81.6	84.9	66	69.1	0	2	315	0.00	30.040 
13:20	81.6	81.6	85.3	68	70.0	0	1	315	0.00	30.040 
13:25	82.0	82.0	85.4	65	69.0	0	2	315	0.00	30.040 
13:30	82.4	82.4	85.8	64	69.0	0	1	315	0.00	30.033 
13:35	83.0	83.0	86.6	63	69.1	0	1	315	0.00	30.033 
13:40	83.0	83.0	86.6	63	69.1	0	1	315	0.00	30.033 
13:45	83.2	83.2	87.2	64	69.7	1	4	292	0.00	30.027 
13:50	83.4	83.4	87.0	62	69.0	1	6	292	0.00	30.027 
13:55	83.4	83.4	86.8	61	68.5	0	2	270	0.00	30.027 
14:00	83.2	83.2	86.5	61	68.3	0	1	270	0.00	30.024 
14:05	83.2	83.2	86.9	63	69.3	0	2	270	0.00	30.024 
14:10	83.0	83.0	86.4	62	68.6	0	1	270	0.00	30.024 
14:15	82.8	82.8	86.3	63	68.9	0	1	270	0.00	30.024 
14:20	83.0	83.0	86.6	63	69.1	0	1	270	0.00	30.024 
14:25	83.2	83.2	86.7	62	68.8	0	1	270	0.00	30.024 
14:30	83.8	83.8	87.7	62	69.4	0	1	270	0.00	30.021 
14:35	84.3	84.3	87.8	59	68.4	0	2	270	0.00	30.021 
14:40	84.9	84.9	88.2	57	67.9	1	2	270	0.00	30.021 
14:45	85.5	85.5	90.2	60	70.0	0	2	270	0.00	30.014 
14:50	85.9	85.9	89.9	57	68.9	0	2	270	0.00	30.014 
14:55	86.3	86.3	90.6	57	69.2	0	2	270	0.00	30.014 
15:00	86.7	86.7	89.6	52	66.9	1	3	270	0.00	30.010 
15:05	86.7	86.7	89.3	51	66.4	1	4	270	0.00	30.010 
15:10	86.7	86.7	89.9	53	67.5	0	2	270	0.00	30.010 
15:15	87.2	87.2	90.1	51	66.8	0	3	270	0.00	30.006 
15:20	87.0	87.0	89.7	51	66.6	0	2	270	0.00	30.006 
15:25	87.0	87.0	91.1	55	68.8	0	2	292	0.00	30.006 
15:30	86.7	86.7	89.6	52	66.9	1	3	292	0.00	30.004 
15:35	86.5	86.5	89.9	54	67.8	1	4	292	0.00	30.004 
15:40	86.7	86.7	89.9	53	67.5	0	3	292	0.00	30.004 
15:45	87.2	87.2	90.8	53	67.9	0	3	292	0.00	29.998 
15:50	87.4	87.4	90.4	51	67.0	0	1	90	0.00	29.998 
15:55	86.7	86.7	89.6	52	66.9	1	2	90	0.00	29.998 
16:00	86.1	86.1	88.9	53	66.9	0	1	90	0.00	29.995 
16:05	85.9	85.9	88.9	54	67.3	0	1	90	0.00	29.995 
16:10	86.1	86.1	88.6	52	66.4	1	5	90	0.00	29.995 
16:15	85.9	85.9	88.6	53	66.7	0	2	22	0.00	29.992 
16:20	86.1	86.1	88.9	53	66.9	0	2	0	0.00	29.992 
16:25	86.1	86.1	88.3	51	65.8	2	5	270	0.00	29.992 
16:30	85.7	85.7	88.0	52	66.0	1	3	270	0.00	29.987 
16:35	85.7	85.7	88.3	53	66.6	0	4	292	0.00	29.987 
16:40	85.7	85.7	88.6	54	67.1	1	3	292	0.00	29.987 
16:45	85.5	85.5	87.7	52	65.8	1	3	292	0.00	29.980 
16:50	85.5	85.5	88.0	53	66.4	0	3	292	0.00	29.980 
16:55	85.9	85.9	88.9	54	67.3	0	2	292	0.00	29.980 
17:00	85.9	85.9	88.0	51	65.6	1	3	292	0.00	29.978 
17:05	85.9	85.9	88.0	51	65.6	1	3	292	0.00	29.978 
17:10	85.5	85.5	87.7	52	65.8	0	2	292	0.00	29.978 
17:15	85.3	85.3	87.7	53	66.2	0	3	292	0.00	29.978 
17:20	85.5	85.5	87.7	52	65.8	0	1	292	0.00	29.978 
17:25	85.5	85.5	88.3	54	66.9	0	2	292	0.00	29.978 
17:30	85.5	85.5	88.3	54	66.9	0	1	292	0.00	29.977 
17:35	85.9	85.9	88.3	52	66.2	0	2	292	0.00	29.977 
17:40	85.9	85.9	88.9	54	67.3	0	2	292	0.00	29.977 
17:45	86.1	86.1	89.2	54	67.5	0	1	292	0.00	29.979 
17:50	86.5	86.5	89.3	52	66.7	0	2	292	0.00	29.979 
17:55	86.7	86.7	89.3	51	66.4	0	0	---	0.00	29.979 
18:00	86.7	86.7	89.3	51	66.4	0	1	292	0.00	29.977 
18:05	86.5	86.5	89.9	54	67.8	0	1	292	0.00	29.977 
18:10	86.1	86.1	88.6	52	66.4	1	3	292	0.00	29.977 
18:15	85.9	85.9	88.0	51	65.6	0	1	292	0.00	29.977 
18:20	85.7	85.7	87.7	51	65.5	0	1	292	0.00	29.977 
18:25	85.3	85.3	87.7	53	66.2	0	0	---	0.00	29.977 
18:30	85.1	85.1	87.7	54	66.6	0	0	---	0.00	29.980 
18:35	84.7	84.7	86.8	53	65.6	0	1	292	0.00	29.980 
18:40	84.7	84.7	87.0	54	66.2	0	0	---	0.00	29.980 
18:45	84.7	84.7	86.8	53	65.6	0	1	292	0.00	29.981 
18:50	84.7	84.7	87.0	54	66.2	0	1	292	0.00	29.981 
18:55	84.7	84.7	86.8	53	65.6	0	1	292	0.00	29.981 
19:00	84.7	84.7	87.0	54	66.2	0	1	292	0.00	29.982 
19:05	84.7	84.7	86.8	53	65.6	1	4	292	0.00	29.982 
19:10	84.7	84.7	87.0	54	66.2	0	1	292	0.00	29.982 
19:15	84.5	84.5	87.3	56	67.0	0	1	292	0.00	29.985 
19:20	84.3	84.3	86.7	55	66.3	0	1	292	0.00	29.985 
19:25	84.1	84.1	86.7	56	66.7	0	1	292	0.00	29.985 
19:30	84.0	84.0	86.5	56	66.6	0	0	---	0.00	29.982 
19:35	83.8	83.8	86.4	57	66.9	0	0	---	0.00	29.982 
19:40	83.6	83.6	86.4	58	67.2	0	0	---	0.00	29.982 
19:45	83.6	83.6	86.4	58	67.2	0	0	---	0.00	29.984 
19:50	83.4	83.4	86.5	60	68.0	0	0	---	0.00	29.984 
19:55	83.2	83.2	86.5	61	68.3	0	0	---	0.00	29.984 
20:00	82.8	82.8	86.1	62	68.4	0	0	---	0.00	29.989 
20:05	82.4	82.4	85.2	61	67.6	0	0	---	0.00	29.989 
20:10	82.2	82.2	85.1	62	67.9	0	0	---	0.00	29.989 
20:15	81.8	81.8	84.9	64	68.4	0	0	---	0.00	29.990 
20:20	81.2	81.2	84.1	65	68.3	0	0	---	0.00	29.990 
20:25	80.9	80.9	84.0	67	68.9	0	0	---	0.00	29.990 
20:30	80.5	80.5	83.5	68	68.9	0	0	---	0.00	29.991 
20:35	79.9	79.9	82.6	68	68.4	0	0	---	0.00	29.991 
20:40	79.8	79.8	82.6	70	69.1	0	0	---	0.00	29.991 
20:45	79.4	79.4	82.0	70	68.7	0	0	---	0.00	29.995 
20:50	79.2	79.2	81.8	71	69.0	0	0	---	0.00	29.995 
20:55	79.0	79.0	81.5	71	68.8	0	0	---	0.00	29.995 
21:00	78.8	78.8	81.2	71	68.6	0	0	---	0.00	29.997 
21:05	78.6	78.6	80.9	71	68.4	0	0	---	0.00	29.997 
21:10	78.5	78.5	80.9	73	69.1	0	0	---	0.00	29.997 
21:15	78.1	78.1	80.3	73	68.7	0	0	---	0.00	30.005 
21:20	77.9	77.9	80.0	73	68.5	0	0	---	0.00	30.005 
21:25	77.7	77.7	79.7	74	68.7	0	0	---	0.00	30.005 
21:30	77.6	77.6	79.6	75	69.0	0	0	---	0.00	30.007 
21:35	77.4	77.4	79.3	75	68.8	0	0	---	0.00	30.007 
21:40	77.4	77.4	79.3	77	69.6	0	0	---	0.00	30.007 
21:45	77.2	77.2	79.0	77	69.4	0	0	---	0.00	30.009 
21:50	77.2	77.2	78.9	78	69.8	0	0	---	0.00	30.009 
21:55	77.2	77.2	78.9	78	69.8	0	0	---	0.00	30.009 
22:00	77.0	77.0	78.6	78	69.6	0	0	---	0.00	30.012 
22:05	77.0	77.0	78.6	78	69.6	0	0	---	0.00	30.012 
22:10	77.0	77.0	78.6	78	69.6	0	0	---	0.00	30.012 
22:15	77.0	77.0	78.6	78	69.6	0	0	---	0.00	30.007 
22:20	77.0	77.0	78.6	78	69.6	0	0	---	0.00	30.007 
22:25	76.8	76.8	78.3	78	69.4	0	0	---	0.00	30.007 
22:30	76.7	76.7	78.2	78	69.3	0	0	---	0.00	30.008 
22:35	76.7	76.7	78.2	78	69.3	0	0	---	0.00	30.008 
22:40	76.5	76.5	77.8	79	69.5	0	0	---	0.00	30.008 
22:45	76.3	76.3	77.5	79	69.3	0	0	---	0.00	30.019 
22:50	76.1	76.1	77.1	80	69.5	0	0	---	0.00	30.019 
22:55	76.0	76.0	76.9	81	69.7	0	0	---	0.00	30.019 
23:00	75.8	75.8	76.6	81	69.5	0	0	---	0.00	30.021 
23:05	75.6	75.6	76.3	81	69.3	0	0	---	0.00	30.021 
23:10	75.4	75.4	75.9	82	69.5	0	0	---	0.00	30.021 
23:15	75.3	75.3	75.6	83	69.8	0	0	---	0.00	30.020 
23:20	75.1	75.1	75.3	83	69.6	0	0	---	0.00	30.020 
23:25	74.9	74.9	74.9	84	69.7	0	0	---	0.00	30.020 
23:30	74.7	74.7	74.7	84	69.5	0	0	---	0.00	30.020 
23:35	74.6	74.6	74.6	84	69.4	0	0	---	0.00	30.020 
23:40	74.4	74.4	74.4	84	69.2	0	0	---	0.00	30.020 
23:45	74.2	74.2	74.2	84	69.0	0	0	---	0.00	30.022 
23:50	74.0	74.0	74.0	84	68.8	0	0	---	0.00	30.022 
23:55	73.9	73.9	73.9	84	68.7	0	0	---	0.00	30.022 

CoCoRaHS
IN-AL-39
A2 Web Hosting
Creative Commons License
GoDaddy
search engine by freefind advanced

loaded 2018-11-17 06:17:41 • last modified 2010-11-18 10:43:29
Privacy PolicyDisclaimer
• wx.awcolley.com is powered by PmWiki v.2002016 •
• all content (unless otherwise noted) © 2018 A W Colley